Terminal Aerodrome Forecast
Issued by NWS

Home | Current Version | Previous Version | Text Only | Print | Product List | Glossary On
Versions: 1 2 3 4 5 6 7 8 9 10 11 12 13 14 15 16 17 18 19
829
FTUS41 KPBZ 212320
TAFAGC
TAF
KAGC 212320Z 2200/2224 VRB02KT P6SM SKC
     FM220800 00000KT 3SM BR SKC
      TEMPO 2210/2213 1/2SM FG VV002
     FM221400 36004KT P6SM SKC=

USA.gov is the U.S. government's official web portal to all federal, state and local government web resources and services.